Weather in Zolotari

Russia / Volgograd Oblast     49°45′43″N   46°27′01″E
temp.,
°C
wind,
m/s
gust,
m/s
humid.,
%
clouds,
%
prec.,
mm/h
press.,
hPa
HPBL,
m
6 august, fri
fri600:00+23nne473797 0.0 1015139
03:00+21ene354181 0.0 101588
06:00+22ne354022 0.0 1016152
09:00+28ene33275 0.0 10161252
12:00+31ne33214 0.0 10152360
15:00+32ne44175 0.0 10132566
18:00+31ene54187 0.0 10132336
21:00+25ene4927100 0.0 1014165
7 august, sat
sat700:00+23ene493094 0.0 1014155
03:00+22e41031100 0.0 1014182
06:00+23e5112841 0.0 1014289
09:00+30ese671849 0.0 10141135
12:00+33ese561756 0.0 10132195
15:00+35ese5514100 0.0 10122598
18:00+33e5616100 0.0 1012916
21:00+28e482293 0.0 1012120
8 august, sun
sun800:00+26e513266 0.0 1013225
03:00+24e512298 0.0 1014223
06:00+26ese61427100 0.0 1014423
09:00+32ese8101781 0.0 10151157
12:00+35ese8814100 0.0 10141945
15:00+35e8913100 0.0 10141962
18:00+34e7916100 0.0 10131896
21:00+30ene4112399 0.0 1015312
9 august, mon
mon900:00+30e101525100 0.0 1015584
03:00+28ese10162987 0.0 1015561
06:00+28ese91530100 0.0 1015685
09:00+30e81224100 0.0 1016920
12:00+31e81018100 0.0 1016791
15:00+33e7101699 0.0 10161285
18:00+34e8101567 0.0 10141434
21:00+30e41121100 0.0 1015357
10 august, tue
tue1000:00+29ene6122099 0.0 1015384
03:00+26ene7142421 0.0 1014331
06:00+27e7152894 0.0 1014436
09:00+33e91119100 0.0 10131073
12:00+37ese9111587 0.0 10122123
15:00+36ese101116100 0.0 10102306
18:00+31se51033100 0.0 1011419
21:00+30ene61134100 0.0 1010339